User: anonymous   Login
Location: Hamilton
(37.7830°S, 175.2830°E)
Time: 05:36:34
(UTC+13:00)
Language:

Cosmos 1633 - Orbit

View from above orbital plane
View from above orbital plane
View from above satellite
View from above satellite

Ground track
Ground track

The orbit data is extracted from the following two-line orbital elements,

1 15592U 85020A   19287.82292529 +.00001080 +00000-0 +35226-4 0  9994
2 15592 082.5405 186.5402 0014368 051.3780 308.8745 15.30537553893899
Epoch (UTC): 14 October 2019 19:45:00
Eccentricity: 0.0014368
inclination: 82.5405°
perigee height: 464 km
apogee height: 484 km
right ascension of ascending node: 186.5402°
argument of perigee: 51.3780°
revolutions per day: 15.30537553
mean anomaly at epoch: 308.8745°
orbit number at epoch: 89389

The dashed part of the orbit path shows where the satellite is in the earth's shadow,  

DLR